Content
SEND FEEDBACK

Daily
Averages
Monthly
Summary
United States of America

JAMESTOWN, NEW YORK


Home > North America > United States > New York
Elevation: 1725 feet     Latitude: 42 09N     Longitude: 079 15W

WEATHER
 
SELECT A DAY
Number of Records: 356,008;   Date Range: 1/1/95 - 12/26/14
 
SHARE

PRINT THIS DATA

[ ← Previous Day ]
WEATHER ALMANAC - JANUARY 1, 2013
[ Next Day → ]
[ °C ]   °F
Weather ElementAverageHighLow
Temperature22.2 °F28.4 °F (12:35 am)17.6 °F (10:35 pm)
Dewpoint16.9 °F26.6 °F (1:15 am)10.4 °F (2:15 pm)
Humidity80.5 %93 % (1:15 am)63 % (2:15 pm)
Barometer29.94 in29.98 in (10:35 am)29.87 in (12:35 am)
Wind Speed7.4 mph12.7 mph (2:15 am)
Wind Gust20.7 mph (2:15 am)
Weather ElementAverage
Visibility8 mi
Wind DirectionWNW (294.6 °)

Weather ElementTotal
Precipitation---
Heating Degree Days42 (Base 65)
Averaged from 65 records on January 1, 2013
WEATHER CONDITIONS BREAKOUT
WIND DIRECTION BREAKOUT
WEATHER BY HOUR - JANUARY 1, 2013
[ °C ]   °F
Local TimeTemperatureDewpointHumidityBarometerVisibilityWind DirectionWind SpeedGust SpeedPrecipitationEventsConditions
12:35 AM28.4 °F24.8 °F86 %29.87 in10.0 miWSW (240°)9.2 mph16.1 mphOvercast
12:55 AM28.4 °F24.8 °F86 %29.87 in10.0 miWSW (240°)10.4 mphOvercast
1:15 AM28.4 °F26.6 °F93 %29.88 in10.0 miWSW (240°)10.4 mphOvercast
1:35 AM28.4 °F26.6 °F93 %29.87 in7.0 miWest (270°)9.2 mphOvercast
1:55 AM28.4 °F26.6 °F93 %29.87 in8.0 miWest (280°)11.5 mph16.1 mphOvercast
2:15 AM28.4 °F24.8 °F86 %29.89 in10.0 miWNW (300°)12.7 mph20.7 mphOvercast
2:35 AM28.4 °F24.8 °F86 %29.90 in7.0 miWNW (300°)11.5 mphOvercast
3:15 AM26.6 °F23.0 °F86 %29.90 in7.0 miWNW (300°)10.4 mphOvercast
3:35 AM26.6 °F21.2 °F80 %29.90 in10.0 miWNW (300°)9.2 mphOvercast
3:55 AM26.6 °F21.2 °F80 %29.90 in10.0 miNW (310°)10.4 mphOvercast
4:15 AM26.6 °F21.2 °F80 %29.90 in10.0 miWNW (290°)8.1 mphOvercast
4:35 AM26.6 °F21.2 °F80 %29.90 in10.0 miNW (310°)9.2 mphOvercast
4:55 AM26.6 °F21.2 °F80 %29.90 in10.0 miNW (310°)8.1 mphOvercast
5:15 AM26.6 °F21.2 °F80 %29.90 in10.0 miNW (310°)8.1 mphOvercast
5:35 AM26.6 °F19.4 °F74 %29.91 in10.0 miWNW (300°)10.4 mphOvercast
6:15 AM26.6 °F17.6 °F69 %29.92 in10.0 miWNW (300°)10.4 mphOvercast
6:35 AM24.8 °F17.6 °F74 %29.92 in10.0 miNW (310°)11.5 mphOvercast
7:15 AM24.8 °F19.4 °F80 %29.91 in10.0 miNNW (330°)8.1 mphOvercast
7:35 AM24.8 °F19.4 °F80 %29.92 in10.0 miNNW (330°)9.2 mph16.1 mphOvercast
8:15 AM24.8 °F17.6 °F74 %29.93 in10.0 miNorth (350°)8.1 mphOvercast
8:35 AM23.0 °F17.6 °F80 %29.95 in10.0 miNW (320°)8.1 mphOvercast
8:55 AM23.0 °F17.6 °F80 %29.95 in2.0 miNorth (350°)9.2 mphOvercast
9:15 AM21.2 °F17.6 °F86 %29.94 in8.0 miNNW (340°)8.1 mphOvercast
9:35 AM21.2 °F15.8 °F80 %29.95 in4.0 miNNW (340°)8.1 mphOvercast
9:55 AM21.2 °F15.8 °F80 %29.97 in4.0 miNNW (340°)9.2 mphOvercast
10:15 AM21.2 °F15.8 °F80 %29.97 in3.0 miNNW (340°)8.1 mphOvercast
10:35 AM21.2 °F17.6 °F86 %29.98 in4.0 miNNW (330°)11.5 mphOvercast
10:55 AM21.2 °F17.6 °F86 %29.98 in5.0 miNW (320°)9.2 mphOvercast
11:15 AM21.2 °F15.8 °F80 %29.97 in4.0 miNNW (330°)6.9 mphOvercast
11:35 AM21.2 °F17.6 °F86 %29.97 in5.0 miNW (320°)9.2 mphOvercast
11:55 AM21.2 °F17.6 °F86 %29.95 in4.0 miNNW (340°)10.4 mphOvercast
12:15 PM21.2 °F17.6 °F86 %29.95 in5.0 miNNW (330°)8.1 mphOvercast
12:35 PM21.2 °F15.8 °F80 %29.94 in5.0 miNNW (340°)6.9 mphOvercast
12:55 PM21.2 °F15.8 °F80 %29.92 in3.0 miNorth (350°)5.8 mphOvercast
1:15 PM21.2 °F15.8 °F80 %29.92 in3.0 miNNW (330°)8.1 mphOvercast
1:35 PM21.2 °F15.8 °F80 %29.93 in3.0 miNW (310°)9.2 mphMostly Cloudy
1:55 PM21.2 °F14.0 °F74 %29.93 in7.0 miNW (310°)12.7 mph17.3 mphOvercast
2:15 PM21.2 °F10.4 °F63 %29.92 in10.0 miWest (280°)10.4 mph16.1 mphOvercast
2:35 PM21.2 °F12.2 °F68 %29.93 in10.0 miNorth (350°)8.1 mph16.1 mphOvercast
3:15 PM21.2 °F15.8 °F80 %29.93 in5.0 miNorth (360°)6.9 mphOvercast
3:35 PM19.4 °F15.8 °F86 %29.93 in6.0 miNorth (350°)8.1 mphOvercast
3:55 PM19.4 °F15.8 °F86 %29.93 in9.0 miNorth (350°)9.2 mphOvercast
4:15 PM19.4 °F15.8 °F86 %29.95 in4.0 miNNW (330°)6.9 mphOvercast
4:35 PM19.4 °F14.0 °F80 %29.95 in10.0 miWNW (300°)6.9 mphOvercast
5:15 PM19.4 °F14.0 °F80 %29.97 in6.0 miWNW (300°)3.5 mphOvercast
5:35 PM19.4 °F15.8 °F86 %29.97 in5.0 miWNW (300°)4.6 mphOvercast
5:55 PM19.4 °F15.8 °F86 %29.97 in10.0 miWNW (290°)4.6 mphOvercast
6:15 PM19.4 °F15.8 °F86 %29.97 in6.0 miWest (280°)4.6 mphOvercast
6:35 PM19.4 °F15.8 °F86 %29.97 in10.0 miCalmOvercast
6:55 PM19.4 °F15.8 °F86 %29.97 in9.0 miWNW (290°)3.5 mphOvercast
7:15 PM19.4 °F15.8 °F86 %29.97 in10.0 miNW (310°)4.6 mphOvercast
7:35 PM19.4 °F15.8 °F86 %29.97 in10.0 miNW (310°)4.6 mphOvercast
7:55 PM19.4 °F12.2 °F74 %29.97 in10.0 miNW (310°)5.8 mphOvercast
8:15 PM19.4 °F12.2 °F74 %29.97 in10.0 miNW (320°)3.5 mphOvercast
8:35 PM19.4 °F12.2 °F74 %29.96 in10.0 miNNW (340°)4.6 mphOvercast
8:55 PM19.4 °F12.2 °F74 %29.96 in10.0 miNNW (340°)6.9 mphOvercast
9:15 PM19.4 °F12.2 °F74 %29.97 in10.0 miNorth (350°)4.6 mphOvercast
9:35 PM19.4 °F12.2 °F74 %29.96 in10.0 miNNW (330°)3.5 mphOvercast
9:55 PM19.4 °F12.2 °F74 %29.97 in10.0 miCalmOvercast
10:15 PM19.4 °F10.4 °F68 %29.97 in10.0 miWest (280°)3.5 mphOvercast
10:35 PM17.6 °F12.2 °F79 %29.97 in10.0 miCalmOvercast
10:55 PM17.6 °F10.4 °F73 %29.97 in10.0 miWSW (240°)4.6 mphOvercast
11:15 PM17.6 °F12.2 °F79 %29.97 in10.0 miSW (230°)4.6 mphOvercast
11:35 PM17.6 °F12.2 °F79 %29.97 in10.0 miSW (230°)4.6 mphOvercast
11:55 PM19.4 °F12.2 °F74 %29.96 in9.0 miSW (220°)4.6 mphOvercast
Hourly data recorded from KJHW, located miles away from Jamestown, New York







STORIES FROM OUR PARTNERS